DAL8485 KLAX-KMRY

Flight info

Callsign DAL8485
Flight time N/A
Altitude 32000
Route SUMMR2 SCTRR WIGGL
Aircraft E75L/M-SDE3GILORVW/S

Departure

Time 2026-04-22 00:07
Airport Los Angeles International Airport (KLAX)

Arrival

Time N/A
Airport Monterey Regional Airport (KMRY)
Time Latitude Longitude Altitude Speed Heading
2026-04-21 23:52 33.94624 -118.40482 120 ft 0 kts 92°
2026-04-21 23:57 33.94624 -118.40487 120 ft 2 kts 92°
2026-04-21 23:57 33.94625 -118.40498 120 ft 1 kts 92°
2026-04-21 23:58 33.94623 -118.40515 120 ft 2 kts 68°
2026-04-21 23:58 33.94615 -118.40530 120 ft 2 kts 45°
2026-04-21 23:58 33.94603 -118.40540 120 ft 2 kts 20°
2026-04-21 23:58 33.94588 -118.40543 120 ft 2 kts 357°
2026-04-21 23:59 33.94582 -118.40543 120 ft 0 kts 350°
2026-04-22 00:01 33.94583 -118.40543 120 ft 0 kts 352°
2026-04-22 00:02 33.94601 -118.40546 120 ft 4 kts 349°
2026-04-22 00:02 33.94646 -118.40556 120 ft 8 kts 350°
2026-04-22 00:02 33.94716 -118.40573 120 ft 11 kts 350°
2026-04-22 00:02 33.94773 -118.40546 120 ft 0 kts 45°
2026-04-22 00:03 33.94792 -118.40560 120 ft 11 kts 303°
2026-04-22 00:03 33.94841 -118.40601 120 ft 7 kts
2026-04-22 00:03 33.94870 -118.40559 120 ft 6 kts 79°
2026-04-22 00:03 33.94876 -118.40510 120 ft 5 kts 83°
2026-04-22 00:04 33.94881 -118.40462 119 ft 6 kts 83°
2026-04-22 00:04 33.94887 -118.40407 118 ft 7 kts 83°
2026-04-22 00:04 33.94894 -118.40344 117 ft 8 kts 82°
2026-04-22 00:04 33.94902 -118.40278 117 ft 7 kts 82°
2026-04-22 00:05 33.94905 -118.40218 117 ft 6 kts 89°
2026-04-22 00:05 33.94908 -118.40160 117 ft 7 kts 87°
2026-04-22 00:05 33.94912 -118.40095 115 ft 8 kts 83°
2026-04-22 00:05 33.94921 -118.40016 114 ft 10 kts 80°
2026-04-22 00:06 33.94940 -118.39946 113 ft 8 kts 55°
2026-04-22 00:06 33.94997 -118.39918 112 ft 7 kts 353°
2026-04-22 00:06 33.95044 -118.39934 112 ft 5 kts 289°
2026-04-22 00:06 33.95034 -118.40029 113 ft 34 kts 261°
2026-04-22 00:07 33.94976 -118.40571 120 ft 95 kts 263°
2026-04-22 00:07 33.94873 -118.41563 125 ft 142 kts 259°
2026-04-22 00:07 33.94741 -118.42841 362 ft 163 kts 261°
2026-04-22 00:07 33.94598 -118.44199 978 ft 162 kts 261°
2026-04-22 00:08 33.94473 -118.45507 1635 ft 163 kts 262°
2026-04-22 00:08 33.94363 -118.46977 1956 ft 190 kts 267°
2026-04-22 00:08 33.94309 -118.48673 2397 ft 212 kts 267°
2026-04-22 00:08 33.94251 -118.50440 3139 ft 217 kts 266°
2026-04-22 00:09 33.94116 -118.52277 3787 ft 228 kts 264°
2026-04-22 00:09 33.93959 -118.54285 4227 ft 250 kts 264°
2026-04-22 00:09 33.93793 -118.56404 4901 ft 260 kts 264°
2026-04-22 00:09 33.93627 -118.58530 5806 ft 259 kts 264°
2026-04-22 00:10 33.93459 -118.60674 6715 ft 258 kts 264°
2026-04-22 00:10 33.93294 -118.62775 7580 ft 256 kts 263°
2026-04-22 00:10 33.93129 -118.64887 8386 ft 256 kts 263°
2026-04-22 00:10 33.92965 -118.67012 9175 ft 257 kts 262°
2026-04-22 00:11 33.92798 -118.69160 9899 ft 259 kts 262°
2026-04-22 00:11 33.92633 -118.71287 10585 ft 262 kts 262°
2026-04-22 00:11 33.92462 -118.73478 11172 ft 267 kts 262°
2026-04-22 00:11 33.92285 -118.75738 11651 ft 271 kts 262°
2026-04-22 00:12 33.92112 -118.77957 11601 ft 257 kts 262°
2026-04-22 00:12 33.91945 -118.80086 11717 ft 269 kts 262°
2026-04-22 00:12 33.91761 -118.82414 11989 ft 288 kts 263°
2026-04-22 00:12 33.91746 -118.84847 12596 ft 295 kts 269°
2026-04-22 00:13 33.91820 -118.87304 13358 ft 294 kts 269°
2026-04-22 00:13 33.91892 -118.89737 14094 ft 293 kts 269°
2026-04-22 00:13 33.91964 -118.92166 14860 ft 293 kts 269°
2026-04-22 00:13 33.92035 -118.94614 15560 ft 293 kts 269°
2026-04-22 00:14 33.92106 -118.97032 16255 ft 293 kts 269°
2026-04-22 00:14 33.92178 -118.99509 16960 ft 294 kts 269°
2026-04-22 00:14 33.92496 -119.01939 17439 ft 306 kts 287°
2026-04-22 00:14 33.93562 -119.04202 18017 ft 314 kts 295°
2026-04-22 00:15 33.94706 -119.06421 18634 ft 314 kts 294°
2026-04-22 00:15 33.95857 -119.08650 19205 ft 316 kts 295°
2026-04-22 00:15 33.97027 -119.10918 19727 ft 319 kts 295°
2026-04-22 00:15 33.98201 -119.13196 20271 ft 321 kts 295°
2026-04-22 00:16 33.99368 -119.15460 20775 ft 323 kts 295°
2026-04-22 00:16 34.00558 -119.17750 21291 ft 326 kts 297°
2026-04-22 00:16 34.02257 -119.19709 21726 ft 347 kts 315°
2026-04-22 00:16 34.04230 -119.21404 22188 ft 350 kts 315°
2026-04-22 00:17 34.06224 -119.23117 22627 ft 353 kts 315°
2026-04-22 00:17 34.08219 -119.24832 23133 ft 357 kts 315°
2026-04-22 00:17 34.10240 -119.26568 23792 ft 358 kts 315°
2026-04-22 00:17 34.12258 -119.28305 24391 ft 360 kts 315°
2026-04-22 00:18 34.14326 -119.30085 24971 ft 363 kts 314°
2026-04-22 00:18 34.16387 -119.31861 25480 ft 367 kts 314°
2026-04-22 00:18 34.18454 -119.33643 26019 ft 370 kts 314°
2026-04-22 00:18 34.20552 -119.35452 26506 ft 373 kts 314°
2026-04-22 00:19 34.22657 -119.37268 27074 ft 374 kts 314°
2026-04-22 00:19 34.24780 -119.39101 27560 ft 377 kts 314°
2026-04-22 00:19 34.26929 -119.40958 28002 ft 381 kts 314°
2026-04-22 00:19 34.29098 -119.42834 28448 ft 385 kts 314°
2026-04-22 00:20 34.31273 -119.44715 28951 ft 386 kts 314°
2026-04-22 00:20 34.33462 -119.46609 29461 ft 387 kts 314°
2026-04-22 00:20 34.35645 -119.48502 29956 ft 389 kts 314°
2026-04-22 00:20 34.37873 -119.50433 30334 ft 392 kts 314°
2026-04-22 00:21 34.40073 -119.52342 30712 ft 395 kts 314°
2026-04-22 00:21 34.42301 -119.54342 31113 ft 394 kts 311°
2026-04-22 00:21 34.44466 -119.56391 31561 ft 395 kts 312°
2026-04-22 00:21 34.46631 -119.58433 32000 ft 395 kts 312°
2026-04-22 00:22 34.48795 -119.60474 32162 ft 401 kts 312°
2026-04-22 00:22 34.53307 -119.64732 32195 ft 417 kts 313°
2026-04-22 00:22 34.55563 -119.66853 32197 ft 396 kts 312°
2026-04-22 00:23 34.57666 -119.68834 32183 ft 372 kts 311°
2026-04-22 00:23 34.59662 -119.70718 32167 ft 351 kts 310°
2026-04-22 00:23 34.61554 -119.72511 32181 ft 342 kts 310°
2026-04-22 00:24 34.65385 -119.76148 32210 ft 352 kts 310°
2026-04-22 00:24 34.69257 -119.79817 32172 ft 353 kts 311°
2026-04-22 00:25 34.73117 -119.83481 32204 ft 354 kts 310°
2026-04-22 00:25 34.77000 -119.87169 32163 ft 353 kts 310°
2026-04-22 00:26 34.80860 -119.90841 32178 ft 352 kts 310°
2026-04-22 00:26 34.84737 -119.94534 32150 ft 352 kts 311°
2026-04-22 00:27 34.88608 -119.98226 32028 ft 354 kts 311°
2026-04-22 00:27 34.90525 -120.00055 31760 ft 354 kts 310°
2026-04-22 00:27 34.92491 -120.01934 31500 ft 356 kts 310°
2026-04-22 00:27 34.94433 -120.03789 31250 ft 356 kts 310°
2026-04-22 00:28 34.96393 -120.05663 30998 ft 358 kts 310°
2026-04-22 00:28 34.98320 -120.07507 30749 ft 357 kts 311°
2026-04-22 00:28 35.00285 -120.09388 30481 ft 357 kts 310°
2026-04-22 00:28 35.02245 -120.11266 30236 ft 359 kts 310°
2026-04-22 00:29 35.04217 -120.13158 29984 ft 360 kts 310°
2026-04-22 00:29 35.06179 -120.15038 29703 ft 360 kts 310°
2026-04-22 00:29 35.08139 -120.16920 29444 ft 358 kts 310°
2026-04-22 00:29 35.10097 -120.18801 29188 ft 359 kts 310°
2026-04-22 00:30 35.12085 -120.20713 28918 ft 363 kts 311°
2026-04-22 00:30 35.14059 -120.22611 28647 ft 363 kts 311°
2026-04-22 00:30 35.16016 -120.24492 28374 ft 361 kts 310°
2026-04-22 00:30 35.18008 -120.26380 28156 ft 363 kts 312°
2026-04-22 00:31 35.20045 -120.28234 28154 ft 361 kts 312°
2026-04-22 00:31 35.24092 -120.31930 28179 ft 364 kts 312°
2026-04-22 00:32 35.28138 -120.35631 28145 ft 363 kts 312°
2026-04-22 00:32 35.32162 -120.39319 28161 ft 362 kts 312°
2026-04-22 00:33 35.36187 -120.43012 28170 ft 361 kts 312°
2026-04-22 00:33 35.40199 -120.46697 28164 ft 356 kts 312°
2026-04-22 00:34 35.44168 -120.50348 28157 ft 358 kts 312°
2026-04-22 00:34 35.48156 -120.54021 28169 ft 357 kts 311°
2026-04-22 00:35 35.52138 -120.57692 28132 ft 357 kts 311°
2026-04-22 00:35 35.56231 -120.61204 28194 ft 360 kts 313°
2026-04-22 00:36 35.60347 -120.64740 27710 ft 362 kts 313°
2026-04-22 00:36 35.62386 -120.66493 27192 ft 356 kts 312°
2026-04-22 00:36 35.64412 -120.68243 26868 ft 354 kts 313°
2026-04-22 00:36 35.66415 -120.69971 26651 ft 351 kts 313°
2026-04-22 00:37 35.68411 -120.71697 26186 ft 357 kts 313°
2026-04-22 00:37 35.70438 -120.73447 25737 ft 354 kts 313°
2026-04-22 00:37 35.72471 -120.75206 25287 ft 356 kts 313°
2026-04-22 00:37 35.74491 -120.76953 24841 ft 356 kts 313°
2026-04-22 00:38 35.76527 -120.78716 24386 ft 357 kts 313°
2026-04-22 00:38 35.78531 -120.80452 23947 ft 354 kts 313°
2026-04-22 00:38 35.80557 -120.82210 23501 ft 361 kts 313°
2026-04-22 00:38 35.82615 -120.83994 23074 ft 359 kts 314°
2026-04-22 00:39 35.84671 -120.85780 22657 ft 360 kts 314°
2026-04-22 00:39 35.86710 -120.87550 22253 ft 363 kts 314°
2026-04-22 00:39 35.88756 -120.89326 21845 ft 358 kts 314°
2026-04-22 00:39 35.90785 -120.91092 21439 ft 362 kts 314°
2026-04-22 00:40 35.92855 -120.92895 21018 ft 366 kts 314°
2026-04-22 00:40 35.94933 -120.94704 20574 ft 365 kts 315°
2026-04-22 00:40 35.97031 -120.96533 20025 ft 372 kts 315°
2026-04-22 00:40 35.99143 -120.98374 19510 ft 373 kts 315°
2026-04-22 00:41 36.01249 -121.00208 18964 ft 365 kts 316°
2026-04-22 00:41 36.03283 -121.01981 18465 ft 352 kts 316°
2026-04-22 00:41 36.05224 -121.03677 17890 ft 341 kts 316°
2026-04-22 00:41 36.07126 -121.05341 17333 ft 332 kts 316°
2026-04-22 00:42 36.08998 -121.06979 16757 ft 325 kts 317°
2026-04-22 00:42 36.10834 -121.08586 16177 ft 319 kts 317°
2026-04-22 00:42 36.12637 -121.10166 15601 ft 314 kts 317°
2026-04-22 00:42 36.14406 -121.11716 15048 ft 309 kts 317°
2026-04-22 00:43 36.16133 -121.13232 14473 ft 305 kts 318°
2026-04-22 00:43 36.17853 -121.14741 13895 ft 303 kts 318°
2026-04-22 00:43 36.19570 -121.16248 13332 ft 302 kts 318°
2026-04-22 00:43 36.21270 -121.17741 12764 ft 301 kts 319°
2026-04-22 00:44 36.22978 -121.19241 12200 ft 299 kts 319°
2026-04-22 00:44 36.24657 -121.20718 11644 ft 298 kts 319°
2026-04-22 00:44 36.26351 -121.22208 11084 ft 297 kts 319°
2026-04-22 00:44 36.28024 -121.23682 10517 ft 298 kts 320°
2026-04-22 00:45 36.29722 -121.25174 10126 ft 291 kts 320°
2026-04-22 00:45 36.31354 -121.26613 10101 ft 290 kts 320°
2026-04-22 00:45 36.33024 -121.28085 10090 ft 294 kts 320°
2026-04-22 00:45 36.34705 -121.29569 10093 ft 297 kts 320°
2026-04-22 00:46 36.36376 -121.31042 10089 ft 297 kts 320°
2026-04-22 00:46 36.38059 -121.32528 10090 ft 295 kts 320°
2026-04-22 00:46 36.39737 -121.34010 10089 ft 295 kts 319°
2026-04-22 00:46 36.41418 -121.35497 10081 ft 296 kts 320°
2026-04-22 00:47 36.42906 -121.37118 9955 ft 278 kts 309°
2026-04-22 00:47 36.44220 -121.38815 9545 ft 272 kts 309°
2026-04-22 00:47 36.45518 -121.40494 9194 ft 266 kts 309°
2026-04-22 00:47 36.46782 -121.42130 8816 ft 262 kts 309°
2026-04-22 00:48 36.48055 -121.43778 8374 ft 263 kts 309°
2026-04-22 00:48 36.49313 -121.45409 7834 ft 265 kts 310°
2026-04-22 00:48 36.50599 -121.47073 7294 ft 266 kts 309°
2026-04-22 00:48 36.51876 -121.48729 6755 ft 267 kts 310°
2026-04-22 00:49 36.53151 -121.50382 6189 ft 269 kts 310°
2026-04-22 00:49 36.54425 -121.52033 5520 ft 259 kts 310°
2026-04-22 00:49 36.55634 -121.53599 5111 ft 240 kts 312°
2026-04-22 00:49 36.56668 -121.55052 5104 ft 212 kts 311°
2026-04-22 00:50 36.57596 -121.56418 5091 ft 202 kts 286°
2026-04-22 00:50 36.57649 -121.58086 5158 ft 198 kts 253°
2026-04-22 00:50 36.57231 -121.59724 4983 ft 203 kts 251°
2026-04-22 00:50 36.56771 -121.61407 4443 ft 205 kts 251°
2026-04-22 00:51 36.56407 -121.63094 3938 ft 203 kts 271°
2026-04-22 00:51 36.56524 -121.64788 3766 ft 192 kts 275°
2026-04-22 00:51 36.56657 -121.66357 3669 ft 175 kts 274°
2026-04-22 00:51 36.56786 -121.67878 3298 ft 178 kts 274°
2026-04-22 00:52 36.56912 -121.69350 2972 ft 174 kts 274°
2026-04-22 00:52 36.57040 -121.70853 2572 ft 173 kts 274°
2026-04-22 00:52 36.57165 -121.72312 2174 ft 171 kts 274°
2026-04-22 00:52 36.57284 -121.73704 1895 ft 152 kts 274°
2026-04-22 00:53 36.57391 -121.74950 1599 ft 141 kts 274°
2026-04-22 00:53 36.57493 -121.76144 1318 ft 132 kts 274°
2026-04-22 00:53 36.57590 -121.77252 1120 ft 127 kts 273°
2026-04-22 00:53 36.57688 -121.78307 1002 ft 125 kts 273°
2026-04-22 00:54 36.57782 -121.79388 968 ft 126 kts 272°
2026-04-22 00:54 36.57867 -121.80502 848 ft 130 kts 271°
2026-04-22 00:54 36.57915 -121.81644 538 ft 131 kts 270°
2026-04-22 00:54 36.58154 -121.82732 362 ft 129 kts 286°
2026-04-22 00:55 36.58480 -121.83781 261 ft 131 kts 288°
2026-04-22 00:55 36.58846 -121.84865 181 ft 134 kts 286°